Location: Unspecified
(0.0000°N, 0.0000°E)
Time: 19:21:57
(UTC+00:00)

CSL-04 DEB - Visible Passes

Search period start: 14 January 2025 00:00
Search period end: 24 January 2025 00:00
Orbit: 724 x 1658 km, 99.4° (Epoch: 14 January)

Date Brightness Start Highest point End Pass type
(mag) Time Alt. Az. Time Alt. Az. Time Alt. Az.
14 Jan ? 03:03:57 10° NE 03:12:24 39° ESE 03:19:56 10° SSE visible
14 Jan ? 04:51:17 10° NNW 04:59:28 35° WNW 05:07:00 10° SW visible
15 Jan ? 02:46:03 10° NE 02:53:25 27° ESE 03:00:02 10° SSE visible
15 Jan ? 04:31:46 10° N 04:40:39 48° WNW 04:48:38 10° SW visible
16 Jan ? 02:28:46 10° ENE 02:34:24 18° ESE 02:39:35 10° SE visible
16 Jan ? 04:12:31 10° N 04:21:48 66° WNW 04:29:58 10° SSW visible
17 Jan ? 02:13:09 10° E 02:15:22 11° ESE 02:17:31 10° ESE visible
17 Jan ? 03:53:32 10° NNE 04:02:55 88° WNW 04:11:03 10° SSW visible
18 Jan ? 03:34:46 10° NNE 03:43:59 68° ESE 03:51:54 10° S visible
18 Jan ? 05:25:12 10° NW 05:30:41 18° WNW 05:35:52 10° WSW visible
19 Jan ? 03:16:16 10° NNE 03:25:00 49° ESE 03:32:29 10° S visible
19 Jan ? 05:04:50 10° NNW 05:11:55 26° WNW 05:18:23 10° SW visible
20 Jan ? 02:58:05 10° NE 03:05:57 34° ESE 03:12:48 10° SSE visible
20 Jan ? 04:45:01 10° NNW 04:53:07 36° WNW 05:00:18 10° SW visible
21 Jan ? 02:40:20 10° NE 02:46:53 23° E 02:52:42 10° SSE visible
21 Jan ? 04:25:33 10° N 04:34:17 50° WNW 04:41:49 10° SSW visible
22 Jan ? 02:23:24 10° ENE 02:27:48 15° E 02:31:51 10° SE visible
22 Jan ? 04:06:21 10° N 04:15:24 70° WNW 04:23:02 10° SSW visible
23 Jan ? 03:47:25 10° NNE 03:56:27 86° ESE 04:04:01 10° SSW visible
23 Jan ? 05:40:24 10° NW 05:42:57 11° WNW 05:45:25 10° W visible
